Notices

What's New in latest Release from April 7th, 2021:

- Updated Glossary, including Speed of Maximum Gust, and Total Hourly Precipitation

- Updated national and regional climate services offices contacts and prices information

- Addition of station inventory lists for 1981-2010, 1971-2000, and 1961-1990 Normals.

If you haven't already, please take our survey and provide feedback about our website: https://eccc.sondage-survey.ca/f/LanguageSelection.aspx?s=442ca660-fcf1-47c0-95a9-59707d6fd709

Hourly Data Report for March 16, 2021

NANAIMO A
BRITISH COLUMBIA
Current Station Operator: NAVCAN

49°03'16.000" N
123°52'12.000" W
28.00 m
1025365
YCD

Download Data

Hourly Data (March 2021)
Hourly Data Report for March 16, 2021
TIME
LST
Temp Definition
°C
Dew Point Definition
°C
Rel Hum Definition
%
Precip. Amount Definition
mm

Wind Dir Definition
10's deg

Wind Spd Definition
km/h
Visibility Definition
km
Stn Press Definition
kPa
Hmdx Definition


Wind Chill Definition


Weather Definition


00:00 1.0 -3.4 72 LegendMM 24 6 LegendMM 102.07     LegendNANA
01:00 1.1 -3.3 72 LegendMM 26 9 LegendMM 102.08     LegendNANA
02:00 -1.2 -4.6 78 LegendMM 17 5 LegendMM 102.09   -3 LegendNANA
03:00 -1.5 -3.5 86 LegendMM 18 4 LegendMM 102.09   -3 LegendNANA
04:00 -2.9 -4.9 86 LegendMM 17 7 LegendMM 102.06   -6 LegendNANA
05:00 -2.4 -4.2 87 LegendMM 18 6 LegendMM 102.05   -5 LegendNANA
06:00 -2.1 -4.1 86 LegendMM 22 2 LegendMM 102.04   -3 LegendNANA
07:00 -1.8 -3.7 87 LegendMM 19 4 LegendMM 102.05   -3 LegendNANA
08:00 2.3 -2.6 70 LegendMM 26 6 LegendMM 102.03     LegendNANA
09:00 4.8 -1.7 63 LegendMM 31 4 LegendMM 102.01     LegendNANA
10:00 6.3 0.8 68 LegendMM 36 4 LegendMM 101.98     LegendNANA
11:00 7.1 1.1 65 LegendMM 6 4 LegendMM 101.94     LegendNANA
12:00 7.7 0.7 61 LegendMM 1 4 LegendMM 101.87     LegendNANA
13:00 8.6 1.2 59 LegendMM 3 12 LegendMM 101.80     LegendNANA
14:00 9.0 0.1 54 LegendMM 6 11 LegendMM 101.74     LegendNANA
15:00 9.1 -0.4 51 LegendMM 8 10 LegendMM 101.67     LegendNANA
16:00 9.2 -0.9 49 LegendMM 7 9 LegendMM 101.62     LegendNANA
17:00 9.2 -0.7 50 LegendMM 14 4 LegendMM 101.58     LegendNANA
18:00 7.2 -0.7 57 LegendMM 16 5 LegendMM 101.57     LegendNANA
19:00 4.4 0.1 74 LegendMM 27 4 LegendMM 101.58     LegendNANA
20:00 2.7 0.0 82 LegendMM 34 2 LegendMM 101.58     LegendNANA
21:00 1.2 -0.4 89 LegendMM 36 2 LegendMM 101.59     LegendNANA
22:00 1.2 -0.3 90 LegendMM 24 4 LegendMM 101.58     LegendNANA
23:00 -0.3 -1.6 91 LegendMM 15 2 LegendMM 101.57   -1 LegendNANA

Notes on Data Quality.

Legend

  • E = Estimated
  • M = Missing
  • NA = Not Available*
  • [empty] = Indicates an unobserved value
Date modified: